Skip Page Navigation
NASA JPL Caltech
NASA Logo - Jet Propulsion Laboratory + View the NASA Portal
+ Center for Near-Earth Object Studies
JPL Home Earth Solar System Stars & Galaxies Technology
JPL Solar System Dynamics
BODIES ORBITS EPHEMERIDES TOOLS PHYSICAL DATA DISCOVERY FAQ SITE MAP
JPL Small-Body Database Browser
Search: [ help ]  
100503 (1996 XD25)
Classification: Main-belt Asteroid          SPK-ID: 2100503
Ephemeris | Orbit Diagram | Orbital Elements | Mission Design | Physical Parameters | Discovery Circumstances ]

[ show orbit diagram ]
Orbital Elements at Epoch 2459000.5 (2020-May-31.0) TDB
Reference: JPL 18 (heliocentric ecliptic J2000)
 Element Value Uncertainty (1-sigma)   Units 
e .1502528091471175 4.4983e-08  
a 2.459270407104946 1.4565e-08 au
q 2.089758119985052 1.089e-07 au
i 3.20543222021198 4.7304e-06 deg
node 64.56828053975227 0.00010564 deg
peri 176.3075639138871 0.00010727 deg
M 270.7906166899977 1.911e-05 deg
tp 2459349.572703125467
(2021-May-15.07270313)
7.5044e-05 TDB
period 1408.665416825924
3.86
1.2514e-05
3.426e-08
d
yr
n .2555610407552776 2.2703e-09 deg/d
Q 2.828782694224839 1.6753e-08 au
  Orbit Determination Parameters
   # obs. used (total)      450  
   data-arc span      21670 days (59.33 yr)  
   first obs. used      1960-09-24  
   last obs. used      2020-01-23  
   planetary ephem.      DE431  
   SB-pert. ephem.      SB431-N16  
   condition code      0  
   norm. resid. RMS      .60559  
   source      ORB  
   producer      Otto Matic  
   solution date      2020-Feb-24 01:07:06  

Additional Information
 Earth MOID = 1.07717 au 
 Jupiter MOID = 2.17932 au 
 T_jup = 3.473 
[ show covariance matrix ]

Ephemeris | Orbit Diagram | Orbital Elements | Mission Design | Physical Parameters | Discovery Circumstances ]

Physical Parameter Table
Parameter Symbol Value Units Sigma Reference Notes
absolute magnitude H 16.3   n/a MPO459471  

100503 (1996 XD25)          Discovered 1996-Dec-09 by Spacewatch at Kitt Peak
Reference: 20051019/Numbers.arcLast Updated: 2005-10-26

Alternate Designations
 1996 XD25 = 2002 NE30 
Ephemeris | Orbit Diagram | Orbital Elements | Mission Design | Physical Parameters | Discovery Circumstances ]
ABOUT SSD CREDITS/AWARDS PRIVACY/COPYRIGHT GLOSSARY LINKS
FirstGov 2020-Oct-26 17:16 UT
(server date/time)  
NASA Home Page
Site Manager:   Ryan S. Park
Webmaster  Alan B. Chamberlin